Location: St. Louis
(38.6270°N, 90.1994°W)
Time: 00:31:54
(UTC-05:00)

CUTE 1.7 + AOD 2 - Visible Passes

Search period start: 10 August 2022 00:00
Search period end: 20 August 2022 00:00
Orbit: 589 x 608 km, 97.7° (Epoch: 09 August)

Date Brightness Start Highest point End Pass type
(mag) Time Alt. Az. Time Alt. Az. Time Alt. Az.
10 Aug ? 04:24:26 10° NNE 04:28:25 41° E 04:32:16 11° S visible
11 Aug ? 04:34:59 10° NNE 04:39:09 56° E 04:43:00 12° S visible
12 Aug ? 04:45:37 10° NNE 04:49:50 76° E 04:53:46 12° S visible
13 Aug ? 04:56:17 10° N 05:00:31 80° WNW 05:04:30 11° SSW visible
14 Aug ? 03:34:31 10° E 03:35:09 10° E 03:35:46 10° E visible
14 Aug ? 05:07:02 10° N 05:11:11 59° WNW 05:15:14 11° SSW visible
15 Aug ? 03:43:42 10° ENE 03:45:56 14° E 03:48:10 10° SE visible
15 Aug ? 05:17:49 10° N 05:21:50 44° WNW 05:25:51 10° SW visible
16 Aug ? 03:53:44 10° NE 03:56:42 18° E 03:59:40 10° SE visible
16 Aug ? 05:28:40 10° N 05:32:27 33° WNW 05:36:15 10° SW visible
17 Aug ? 04:03:59 10° NE 04:07:27 24° E 04:10:44 11° SSE visible
17 Aug ? 05:39:34 10° NNW 05:43:04 25° WNW 05:46:33 10° SW visible
18 Aug ? 04:14:22 10° NNE 04:18:11 32° E 04:21:27 13° SSE visible
19 Aug ? 04:24:51 10° NNE 04:28:53 43° E 04:32:11 15° SSE visible
